Home   Weather   Kortrijk   Past weeks

Flag for Belgium Past Weather in Kortrijk, Belgium — Yesterday and Last 2 Weeks

54 °F

Partly cloudy.

Feels Like: 52 °F
Forecast: 48 / 61 °F
Wind: 6 mph from Southwest

Location: Lille Airport

Current Time: Oct 28, 2016 at 12:51:11 AM

Latest Report: Oct 28, 2016 at 12:00 AM

Visibility: N/A

Pressure: 30.51 "Hg

Humidity: 94%

Dew Point: 52 °F

Location of KortrijkLocation

Past Weather in Kortrijk — Graph


Kortrijk Temperature Yesterday

Maximum temperature yesterday: 57 °F (at 2:00 PM)
Minimum temperature yesterday: 43 °F (at 12:30 AM)
Average temperature yesterday: 52 °F

High & Low Weather Summary for the Past Weeks

High70 °F (Oct 16, 3:30 PM)100% (Oct 14, 10:30 PM)30.51 "Hg (Oct 14, 10:30 PM)
Low36 °F (Oct 26, 6:00 AM)53% (Oct 16, 3:30 PM)29.62 "Hg (Oct 14, 11:30 PM)
Average50 °F89%30.03 "Hg
* Reported Oct 12 11:00 PM — Oct 27 11:30 PM, Kortrijk, Weather by CustomWeather, © 2016

Note: Actual official high and low records may vary slightly from our data, if they occured in-between our weather recording intervals... More about our weather records


Kortrijk Weather History for the Previous 24 Hours

Scroll right to see more
Time TempWeatherWind HumidityBarometerVisibility
11:30 PM
Thu, Oct 27
54 °FPassing clouds.6 mph94%30.51 "Hg6 mi
11:00 PM54 °FPassing clouds.7 mph94%30.51 "HgN/A
10:30 PM55 °FOvercast.8 mph88%30.51 "HgN/A
10:00 PM55 °FOvercast.8 mph88%30.51 "HgN/A
9:30 PM55 °FOvercast.7 mph88%30.51 "HgN/A
9:00 PM55 °FOvercast.8 mph88%30.51 "HgN/A
8:30 PM55 °FOvercast.7 mph88%30.51 "HgN/A
8:00 PM55 °FMostly cloudy.7 mph94%30.51 "HgN/A
7:30 PM55 °FMostly cloudy.6 mph94%30.51 "HgN/A
7:00 PM55 °FOvercast.6 mph88%30.51 "HgN/A
6:30 PM55 °FOvercast.6 mph88%30.51 "HgN/A
6:00 PM55 °FOvercast.8 mph94%30.51 "HgN/A
5:30 PM57 °FOvercast.6 mph82%30.51 "HgN/A
5:00 PM55 °FMostly cloudy.9 mph94%30.51 "HgN/A
4:30 PM57 °FMostly cloudy.10 mph88%30.51 "HgN/A
4:00 PM57 °FOvercast.8 mph88%30.51 "HgN/A
3:30 PM57 °FMostly cloudy.7 mph88%30.51 "HgN/A
3:00 PM57 °FMostly cloudy.7 mph88%30.51 "HgN/A
2:30 PM57 °FMostly cloudy.7 mph88%30.51 "HgN/A
2:00 PM57 °FLow clouds.7 mph88%30.51 "Hg6 mi
1:30 PM55 °FMostly cloudy.8 mph94%30.51 "Hg6 mi
1:00 PM55 °FLow clouds.8 mph94%30.51 "Hg4 mi
12:30 PM55 °FLow clouds.6 mph94%30.51 "Hg5 mi
11:30 AM54 °FFog.8 mph100%30.51 "Hg3 mi
11:00 AM54 °FFog.6 mph100%30.51 "Hg3 mi
10:30 AM54 °FFog.6 mph100%30.51 "Hg3 mi
10:00 AM52 °FFog.5 mph100%30.51 "Hg2 mi
9:30 AM52 °FFog.2 mph100%30.51 "Hg2 mi
9:00 AM50 °FFog.3 mph100%30.51 "Hg1 mi
8:30 AM50 °FFog.2 mph100%30.48 "Hg1 mi
8:00 AM50 °FFog.3 mph100%30.48 "Hg1 mi
7:30 AM50 °FFog.2 mph100%30.48 "Hg1 mi
7:00 AM50 °FFog.2 mph100%30.48 "Hg1 mi
6:30 AM48 °FDense fog.2 mph100%30.48 "Hg2 mi
6:00 AM48 °FFog.No wind100%30.48 "Hg1 mi
5:30 AM46 °FFog.No wind100%30.48 "Hg1 mi
5:00 AM46 °FFog.No wind100%30.45 "Hg0 mi
4:30 AM46 °FFog.2 mph100%30.45 "Hg0 mi
4:00 AM48 °FFog.3 mph100%30.48 "Hg0 mi
3:30 AM48 °FFog.3 mph100%30.48 "Hg0 mi
3:00 AM48 °FFog.2 mph100%30.45 "Hg0 mi
2:30 AM46 °FFog.2 mph100%30.45 "Hg0 mi
2:00 AM46 °FFog.3 mph100%30.45 "Hg1 mi
1:30 AM45 °FFog.2 mph100%30.45 "Hg0 mi
12:30 AM43 °FFog.3 mph100%30.45 "Hg0 mi
12:00 AM45 °FFog.2 mph100%30.45 "Hg1 mi
Weather by CustomWeather, © 2016

See weather overviewHow to use our weather pages